• In Hungary
  • List of Countries
  • For 7 days
  • Water Temperature
  • Satellite Maps
  • Weather Map
  • News
  • Weather Widgets
  • user-avatar
    Login

    Hourly Weather Cobija

    Today, 12 December, Tuesday

    Time Temperature Precipitation Wind Pressure Humidity
    00:00 +23°C° 0 mm 0 mps 737 mmHg 96%
    01:00 +22°C° 0 mm 0 mps 737 mmHg 97%
    02:00 +22°C° 0 mm 0 mps 737 mmHg 97%
    03:00 +22°C° 0 mm 0 mps 736 mmHg 98%
    04:00 +22°C° 0 mm 0 mps 736 mmHg 98%
    05:00 +23°C° 0 mm 0 mps 737 mmHg 95%
    06:00 +24°C° 0 mm 0 mps 737 mmHg 91%
    07:00 +25°C° 0 mm 0 mps 737 mmHg 87%
    08:00 +28°C° 0 mm 0 mps 737 mmHg 74%
    09:00 +33°C° 0 mm 1 mps 737 mmHg 61%
    10:00 +36°C° 0 mm 1 mps 737 mmHg 47%
    11:00 +33°C° 0 mm 0 mps 737 mmHg 48%
    12:00 +33°C° 0 mm 0 mps 736 mmHg 49%
    13:00 +33°C° 0 mm 0 mps 735 mmHg 50%
    14:00 +33°C° 0 mm 0 mps 734 mmHg 50%
    15:00 +33°C° 0 mm 0 mps 734 mmHg 49%
    16:00 +33°C° 0 mm 0 mps 733 mmHg 49%
    17:00 +31°C° 0 mm 0 mps 733 mmHg 55%
    18:00 +29°C° 0 mm 0 mps 734 mmHg 61%
    19:00 +27°C° 0 mm 0 mps 734 mmHg 68%
    20:00 +28°C° 0 mm 1 mps 735 mmHg 69%
    21:00 +28°C° 0 mm 1 mps 735 mmHg 71%
    22:00 +28°C° 0 mm 1 mps 736 mmHg 72%
    23:00 +27°C° 0 mm 1 mps 736 mmHg 74%

    Tomorrow, 13 December, Wednesday

    Time Temperature Precipitation Wind Pressure Humidity
    00:00 +25°C° 0 mm 0 mps 735 mmHg 75%
    01:00 +25°C° 0 mm 0 mps 735 mmHg 77%
    02:00 +24°C° 0.1 mm 0 mps 735 mmHg 79%
    03:00 +24°C° 0.1 mm 0 mps 735 mmHg 81%
    04:00 +23°C° 0.1 mm 0 mps 736 mmHg 84%
    05:00 +24°C° 0.1 mm 0 mps 736 mmHg 81%
    06:00 +25°C° 0.1 mm 0 mps 737 mmHg 78%
    07:00 +26°C° 0.1 mm 0 mps 738 mmHg 75%
    08:00 +31°C° 0 mm 1 mps 738 mmHg 65%
    09:00 +33°C° 0 mm 1 mps 738 mmHg 55%
    10:00 +36°C° 0 mm 1 mps 738 mmHg 45%
    11:00 +36°C° 0 mm 1 mps 737 mmHg 45%
    12:00 +36°C° 0 mm 1 mps 736 mmHg 45%
    13:00 +34°C° 0 mm 0 mps 736 mmHg 45%
    14:00 +36°C° 0 mm 1 mps 735 mmHg 47%
    15:00 +35°C° 0 mm 1 mps 735 mmHg 48%
    16:00 +35°C° 0 mm 1 mps 734 mmHg 49%
    17:00 +33°C° 0 mm 1 mps 734 mmHg 56%
    18:00 +31°C° 0 mm 1 mps 735 mmHg 63%
    19:00 +29°C° 0 mm 1 mps 735 mmHg 70%
    20:00 +27°C° 0 mm 0 mps 735 mmHg 71%
    21:00 +26°C° 0 mm 0 mps 736 mmHg 73%
    22:00 +26°C° 0 mm 0 mps 736 mmHg 75%
    23:00 +25°C° 0 mm 0 mps 736 mmHg 76%

    Day after tomorrow, 14 December, Thursday

    Time Temperature Precipitation Wind Pressure Humidity
    00:00 +25°C° 0 mm 0 mps 736 mmHg 78%
    01:00 +25°C° 0 mm 0 mps 735 mmHg 79%
    02:00 +24°C° 0.1 mm 0 mps 736 mmHg 81%
    03:00 +24°C° 0.1 mm 0 mps 736 mmHg 83%
    04:00 +23°C° 0.1 mm 0 mps 736 mmHg 86%
    05:00 +24°C° 0 mm 0 mps 736 mmHg 82%
    06:00 +25°C° 0 mm 0 mps 737 mmHg 79%
    07:00 +27°C° 0 mm 0 mps 738 mmHg 75%
    08:00 +29°C° 0 mm 0 mps 738 mmHg 66%
    09:00 +31°C° 0 mm 0 mps 738 mmHg 58%
    10:00 +36°C° 0 mm 1 mps 738 mmHg 49%
    11:00 +36°C° 0.1 mm 1 mps 738 mmHg 49%
    12:00 +36°C° 0.1 mm 1 mps 737 mmHg 49%
    13:00 +34°C° 0.1 mm 0 mps 736 mmHg 49%
    14:00 +35°C° 0 mm 1 mps 735 mmHg 51%
    15:00 +34°C° 0 mm 1 mps 735 mmHg 54%
    16:00 +33°C° 0 mm 1 mps 734 mmHg 57%
    17:00 +32°C° 0 mm 1 mps 735 mmHg 63%
    18:00 +30°C° 0 mm 1 mps 735 mmHg 68%
    19:00 +29°C° 0 mm 1 mps 735 mmHg 74%
    20:00 +29°C° 0 mm 1 mps 736 mmHg 76%
    21:00 +28°C° 0 mm 1 mps 737 mmHg 77%
    22:00 +28°C° 0 mm 1 mps 737 mmHg 79%
    23:00 +27°C° 0 mm 1 mps 737 mmHg 82%

    15 December, Friday

    Time Temperature Precipitation Wind Pressure Humidity
    00:00 +26°C° 0 mm 1 mps 736 mmHg 86%
    01:00 +26°C° 0 mm 1 mps 736 mmHg 89%
    02:00 +25°C° 0 mm 1 mps 736 mmHg 90%
    03:00 +23°C° 0 mm 0 mps 736 mmHg 91%
    04:00 +23°C° 0 mm 0 mps 736 mmHg 92%
    05:00 +24°C° 0.1 mm 0 mps 737 mmHg 89%
    06:00 +27°C° 0.1 mm 1 mps 738 mmHg 86%
    07:00 +27°C° 0.1 mm 1 mps 739 mmHg 83%
    08:00 +28°C° 1.1 mm 1 mps 739 mmHg 84%
    09:00 +29°C° 1.1 mm 1 mps 739 mmHg 84%
    10:00 +30°C° 1.1 mm 1 mps 738 mmHg 85%
    11:00 +31°C° 1 mm 1 mps 738 mmHg 81%
    12:00 +31°C° 1 mm 1 mps 737 mmHg 76%
    13:00 +32°C° 1 mm 1 mps 736 mmHg 72%
    14:00 +30°C° 1 mm 0 mps 736 mmHg 74%
    15:00 +29°C° 1 mm 0 mps 735 mmHg 77%
    16:00 +29°C° 1 mm 0 mps 734 mmHg 79%
    17:00 +27°C° 0.2 mm 0 mps 734 mmHg 83%
    18:00 +26°C° 0.2 mm 0 mps 735 mmHg 88%
    19:00 +26°C° 0.2 mm 1 mps 735 mmHg 92%
    20:00 +26°C° 0 mm 1 mps 735 mmHg 93%
    21:00 +26°C° 0 mm 1 mps 736 mmHg 94%
    22:00 +25°C° 0 mm 1 mps 736 mmHg 95%
    23:00 +25°C° 0 mm 1 mps 736 mmHg 95%

    16 December, Saturday

    Time Temperature Precipitation Wind Pressure Humidity
    00:00 +25°C° 0 mm 1 mps 735 mmHg 96%
    01:00 +25°C° 0 mm 1 mps 735 mmHg 97%
    02:00 +25°C° 0 mm 1 mps 735 mmHg 97%
    03:00 +24°C° 0 mm 1 mps 735 mmHg 98%
    04:00 +24°C° 0 mm 1 mps 735 mmHg 98%
    05:00 +25°C° 0 mm 1 mps 736 mmHg 95%
    06:00 +26°C° 0 mm 1 mps 736 mmHg 91%
    07:00 +27°C° 0 mm 1 mps 737 mmHg 88%
    08:00 +29°C° 0.1 mm 1 mps 737 mmHg 80%
    09:00 +31°C° 0.1 mm 1 mps 737 mmHg 71%
    10:00 +33°C° 0.1 mm 1 mps 737 mmHg 63%
    11:00 +33°C° 1.1 mm 1 mps 736 mmHg 67%
    12:00 +33°C° 1.1 mm 1 mps 735 mmHg 72%
    13:00 +33°C° 1.1 mm 1 mps 734 mmHg 76%
    14:00 +33°C° 0.1 mm 1 mps 734 mmHg 67%
    15:00 +34°C° 0.1 mm 1 mps 733 mmHg 58%
    16:00 +35°C° 0.1 mm 1 mps 732 mmHg 48%
    17:00 +33°C° 0 mm 1 mps 733 mmHg 55%
    18:00 +31°C° 0 mm 1 mps 733 mmHg 63%
    19:00 +27°C° 0 mm 0 mps 733 mmHg 70%
    20:00 +28°C° 0 mm 1 mps 734 mmHg 73%
    21:00 +28°C° 0 mm 1 mps 734 mmHg 76%
    22:00 +27°C° 0 mm 1 mps 735 mmHg 79%
    23:00 +27°C° 0 mm 1 mps 734 mmHg 81%

    17 December, Sunday

    Time Temperature Precipitation Wind Pressure Humidity
    00:00 +26°C° 0 mm 1 mps 734 mmHg 83%
    01:00 +26°C° 0 mm 1 mps 734 mmHg 86%
    02:00 +26°C° 0 mm 1 mps 734 mmHg 86%
    03:00 +26°C° 0 mm 1 mps 734 mmHg 87%
    04:00 +25°C° 0 mm 1 mps 734 mmHg 88%
    05:00 +26°C° 0 mm 1 mps 735 mmHg 83%
    06:00 +27°C° 0 mm 1 mps 736 mmHg 79%
    07:00 +28°C° 0 mm 2 mps 736 mmHg 75%
    08:00 +30°C° 0 mm 2 mps 736 mmHg 67%
    09:00 +32°C° 0 mm 2 mps 736 mmHg 58%
    10:00 +35°C° 0 mm 2 mps 736 mmHg 50%
    11:00 +36°C° 0 mm 2 mps 736 mmHg 47%
    12:00 +37°C° 0 mm 2 mps 735 mmHg 45%
    13:00 +38°C° 0 mm 2 mps 734 mmHg 42%
    14:00 +38°C° 0 mm 2 mps 733 mmHg 43%
    15:00 +37°C° 0 mm 2 mps 733 mmHg 43%
    16:00 +37°C° 0 mm 2 mps 732 mmHg 44%
    17:00 +34°C° 0 mm 1 mps 733 mmHg 52%
    18:00 +32°C° 0 mm 1 mps 733 mmHg 59%
    19:00 +30°C° 0 mm 1 mps 733 mmHg 67%
    20:00 +29°C° 0 mm 1 mps 734 mmHg 69%
    21:00 +29°C° 0 mm 1 mps 734 mmHg 71%
    22:00 +28°C° 0 mm 1 mps 735 mmHg 73%
    23:00 +28°C° 0 mm 1 mps 734 mmHg 75%
    Show more